Meteo Giornale » Osservazioni meteo Svezia » Vasteras-Hasslo

ore: 20:50 - Osservazioni Meteo Vasteras-Hasslo
Lat. 59° 35' N Lon. 16° 38' E Alt. 6 metri s.l.m.

sereno

14 °C

Sereno

Temp. 24 Ore

14 °C

18 °C

Nord

5.5 Km/h

Dew point 12 °C

Umidità 87 %

Visibilità  10 Km

Il sole sorge alle ore 05:47

Il sole tramonta alle ore 20:00

Data e Ora Cielo e Fenomeni T °C DP °C Um. % Pres. hPa Vis. km Vento km/h
Oggi h: 20:50 sereno Sereno 14 12 87 1006 10 N 5.5
Oggi h: 20:20 sereno Sereno 16 12 77 1006 10 N 5.5
Oggi h: 19:50 sereno Sereno 16 11 72 1006 10 S 7.4
Oggi h: 19:20 sereno Sereno 16 12 77 1006 10 S 7.4
Oggi h: 18:50 sereno Sereno 17 12 72 1006 10 N 3.7
Oggi h: 18:20 nuvoloso Nuvoloso 18 12 67 1006 10 N 5.5
Oggi h: 17:50 molto_nuvoloso Molto Nuvoloso 18 12 67 1006 10 S/SO 11.1
Oggi h: 17:20 coperto Coperto 18 12 67 1006 10 S/SO 13
Oggi h: 16:50 coperto Coperto 18 12 67 1006 10 S/SO 16.7
Oggi h: 16:20 coperto Coperto 18 12 67 1006 10 SO 14.8
Oggi h: 15:50 coperto Coperto 18 12 67 1006 10 S/SO 16.7
Oggi h: 15:20 coperto Coperto 18 12 67 1006 10 S/SO 14.8
Oggi h: 14:50 molto_nuvoloso Molto Nuvoloso 18 12 67 1006 10 SO 13
Oggi h: 14:20 molto_nuvoloso Molto Nuvoloso 18 13 72 1006 10 SO 14.8
Oggi h: 13:50 molto_nuvoloso Molto Nuvoloso 18 13 72 1006 10 SO 11.1
Oggi h: 13:20 molto_nuvoloso Molto Nuvoloso 18 13 72 1005 10 SO 13
Oggi h: 12:50 molto_nuvoloso Molto Nuvoloso 18 13 72 1005 10 SO 16.7
Oggi h: 12:20 molto_nuvoloso Molto Nuvoloso 18 13 72 1005 10 SO 18.5
Oggi h: 11:50 molto_nuvoloso Molto Nuvoloso 18 13 72 1005 10 SO 18.5
Oggi h: 11:20 nuvoloso Nuvoloso 17 14 82 1005 10 SO 14.8
Oggi h: 10:50 molto_nuvoloso Molto Nuvoloso 17 15 88 1005 10 SO 16.7
Oggi h: 10:20 molto_nuvoloso Molto Nuvoloso 17 15 88 1004 10 SO 16.7
Oggi h: 09:50 molto_nuvoloso Molto Nuvoloso 17 16 93 1004 10 SO 13
Oggi h: 09:20 molto_nuvoloso Molto Nuvoloso 17 15 88 1004 10 O/SO 11.1
Oggi h: 08:50 molto_nuvoloso Molto Nuvoloso 17 15 88 1004 10 SO 13
Oggi h: 08:20 molto_nuvoloso Molto Nuvoloso 16 15 93 1004 10 SO 9.3
Oggi h: 07:50 molto_nuvoloso Molto Nuvoloso 16 15 93 1003 10 SO 9.3
Oggi h: 07:20 coperto Coperto 16 16 100 1003 10 O/SO 11.1
Oggi h: 06:50 coperto Coperto 16 16 100 1003 10 O/SO 7.4
Oggi h: 06:20 molto_nuvoloso Molto Nuvoloso 16 16 100 1003 7 O 11.1
Oggi h: 05:50 coperto Coperto 16 16 100 1003 10 N 5.5
Oggi h: 05:20 molto_nuvoloso Molto Nuvoloso 16 16 100 1003 10 N 5.5
Oggi h: 04:50 molto_nuvoloso Molto Nuvoloso 16 16 100 1003 10 N 5.5
Oggi h: 04:20 molto_nuvoloso Molto Nuvoloso 16 16 100 1002 9 NO 7.4
Oggi h: 03:50 coperto_pioggia Pioviggine 16 16 100 1002 10 NO 7.4
Oggi h: 03:20 coperto_pioggia Pioggia 16 16 100 1002 1 NO 7.4
Oggi h: 02:50 coperto_pioggia Pioviggine 16 16 100 1002 4 N 0
Oggi h: 02:20 coperto_pioggia Pioggia 16 16 100 1002 3 N 3.7
Oggi h: 01:50 coperto_pioggia Pioviggine 16 16 100 1002 4 N 5.5
Oggi h: 01:20 coperto_pioggia Pioggia 16 16 100 1002 2 N 5.5
Oggi h: 00:50 coperto_pioggia Pioggia 16 16 100 1002 5 N 3.7
Oggi h: 00:20 coperto_pioggia Pioggia 16 15 93 1002 10 N 3.7
Ieri h: 23:50 coperto Coperto 16 15 93 1002 10 N 3.7
Ieri h: 23:20 coperto Coperto 16 15 93 1002 10 N 5.5
Ieri h: 22:50 coperto Coperto 16 15 93 1002 10 N 3.7
Ieri h: 22:20 coperto Coperto 16 15 93 1002 10 N 5.5
Ieri h: 21:50 coperto Coperto 17 15 88 1003 10 N 1.8